Flag for Canada Weather past 2 weeks in Saint John, New Brunswick, Canada

Now
64 °F

Partly sunny.


Feels Like: 64 °F
Forecast: 51 / 67 °F
Wind: 13 mph from Southwest

Location: Saint John

Current Time: Aug 30, 2014 at 11:54:27 AM

Latest Report: Aug 30, 2014 at 11:00 AM


Visibility: 15 mi

Pressure: 30.29 "Hg

Humidity: 60%

Dew point: 50 °F

Location of Saint JohnLocation

Historic Weather in Saint John — Graph

°F

Saint John temperature yesterday

Maximum temperature yesterday: 68 °F (at 3:00 PM)
Minimum temperature yesterday: 48 °F (at 10:00 PM)
Average temperature yesterday: 58 °F

Past Weeks' High & Low Weather Summary

 TemperatureHumidityPressure
High81 °F (Aug 20, 3:00 PM)100% (Aug 15, 10:00 AM)30.30 "Hg (Aug 15, 10:00 AM)
Low37 °F (Aug 30, 5:00 AM)39% (Aug 28, 4:00 PM)29.65 "Hg (Aug 18, 4:00 PM)
Average62 °F85%29.98 "Hg
* Reported Aug 15 10:00 AM — Aug 30 10:00 AM, Saint John, Weather by CustomWeather, © 2014

Note: Actual official high and low records may vary slightly from our data, if they occured in-between our weather recording intervals... More about our weather records

Advertising

Saint John weather history for previous 24 hours

 ConditionsComfort  
Time TempWeatherWind HumidityBarometerVisibility
10:00 AM
Aug 30
63 °FPartly sunny.9 mph73%30.29 "Hg15 mi
9:00 AM59 °FPartly sunny.12 mph82%30.29 "Hg15 mi
8:00 AM46 °FPartly sunny.No wind100%30.30 "Hg15 mi
7:00 AM37 °FFog.No wind100%30.30 "Hg15 mi
6:00 AM37 °FPassing clouds.No wind100%30.29 "Hg15 mi
5:00 AM37 °FClear.No wind100%30.28 "Hg15 mi
4:00 AM39 °FClear.No wind93%30.28 "Hg15 mi
3:00 AM39 °FClear.No wind100%30.29 "Hg15 mi
2:00 AM39 °FClear.No wind100%30.28 "Hg15 mi
1:00 AM43 °FClear.No wind93%30.28 "Hg15 mi
12:00 AM46 °FClear.2 mph93%30.27 "Hg15 mi
11:00 PM
Aug 29
50 °FClear.3 mph88%30.26 "Hg15 mi
10:00 PM48 °FClear.2 mph94%30.24 "Hg15 mi
9:00 PM54 °FSunny.2 mph77%30.22 "Hg15 mi
8:00 PM57 °FPassing clouds.8 mph67%30.21 "Hg15 mi
7:00 PM64 °FPassing clouds.5 mph52%30.18 "Hg15 mi
6:00 PM66 °FPassing clouds.10 mph49%30.17 "Hg15 mi
4:00 PM68 °FScattered clouds.13 mph43%30.16 "Hg15 mi
3:00 PM68 °FScattered clouds.15 mph43%30.14 "Hg15 mi
2:00 PM66 °FScattered clouds.20 mph49%30.14 "Hg15 mi
1:00 PM66 °FScattered clouds.15 mph49%30.12 "Hg15 mi
12:00 PM63 °FScattered clouds.24 mph52%30.11 "Hg15 mi
11:00 AM63 °FScattered clouds.21 mph52%30.09 "Hg15 mi
Weather by CustomWeather, © 2014

See weather overviewHow to use our weather pages